EW2704 Weather Reports


time (UTC)temp
C
wind
direction
speed
KPH
gust
KPH
rain 1hr
cm
rain 24hr
cm
rain mn
cm
humidity
%
barometer
mb
20260504100403 12 131 0.0 0.0 0.00 0.00 0.00 61 1003.7
20260504081903 13 141 1.6 3.2 0.00 0.00 0.00 54 1003.5
20260504080902 14 141 0.0 0.0 0.00 0.00 0.00 55 1003.6
20260504080403 14 141 0.0 0.0 0.00 0.00 0.00 56 1003.7
20260504045903 20 126 0.0 0.0 0.00 0.00 0.00 41 1003.2
20260504044903 20 126 0.0 0.0 0.00 0.00 0.00 41 1003.1
20260504044403 20 126 0.0 0.0 0.00 0.00 0.00 41 1002.9
20260504043902 20 126 0.0 0.0 0.00 0.00 0.00 40 1002.9
20260504041903 21 126 0.0 0.0 0.00 0.00 0.00 37 1002.7
20260504041402 21 126 0.0 0.0 0.00 0.00 0.00 37 1002.6
20260504040903 22 126 0.0 3.2 0.00 0.00 0.00 37 1002.6
20260504040402 22 125 0.0 3.2 0.00 0.00 0.00 36 1002.8
20260504035903 22 126 0.0 0.0 0.00 0.00 0.00 35 1002.7
20260504035402 22 125 0.0 0.0 0.00 0.00 0.00 32 996.9
20260504034402 23 125 0.0 0.0 0.00 0.00 0.00 32 1002.6
20260504033902 23 126 0.0 0.0 0.00 0.00 0.00 30 1002.5
20260504033403 23 126 0.0 0.0 0.00 0.00 0.00 30 1002.4
20260504032902 24 126 0.0 0.0 0.00 0.00 0.00 29 1002.2
20260504032402 24 126 0.0 0.0 0.00 0.00 0.00 29 1002.2
20260504031902 25 126 0.0 0.0 0.00 0.00 0.00 29 1002.2
20260504031403 25 126 0.0 0.0 0.00 0.00 0.00 28 1002.2
20260504030902 26 126 0.0 3.2 0.00 0.00 0.00 29 1002.1
20260504025902 27 123 0.0 0.0 0.00 0.00 0.00 27 1002.4
20260504025403 27 123 0.0 0.0 0.00 0.00 0.00 27 1002.4
20260504024902 27 123 0.0 0.0 0.00 0.00 0.00 27 1002.4
20260504024402 28 123 0.0 0.0 0.00 0.00 0.00 26 1002.4
20260504023902 28 123 0.0 0.0 0.00 0.00 0.00 25 1002.3
20260504023402 28 123 0.0 0.0 0.00 0.00 0.00 25 1002.3
20260504022902 28 123 0.0 1.6 0.00 0.00 0.00 24 1002.3
20260504022402 29 123 0.0 0.0 0.00 0.00 0.00 23 1002.3
20260504021403 29 123 0.0 1.6 0.00 0.00 0.00 23 1002.3
20260504020402 30 123 0.0 0.0 0.00 0.00 0.00 22 1002.5
20260504015902 30 123 0.0 0.0 0.00 0.00 0.00 22 1002.5
20260504015403 30 123 0.0 0.0 0.00 0.00 0.00 22 1002.5
20260504014902 30 123 0.0 0.0 0.00 0.00 0.00 23 1002.6
20260504014403 30 123 0.0 0.0 0.00 0.00 0.00 23 1002.5
20260504013902 30 123 0.0 0.0 0.00 0.00 0.00 23 1002.5
20260504013402 30 123 0.0 0.0 0.00 0.00 0.00 22 1002.5
20260504012402 30 123 0.0 0.0 0.00 0.00 0.00 21 1002.6
20260504011903 30 123 0.0 0.0 0.00 0.00 0.00 22 1002.6
20260504011403 30 123 0.0 0.0 0.00 0.00 0.00 22 1002.7
20260504010903 30 123 0.0 0.0 0.00 0.00 0.00 22 1002.7
20260504010402 30 123 0.0 0.0 0.00 0.00 0.00 22 1002.8
20260504005903 30 117 0.0 0.0 0.00 0.00 0.00 22 1002.8
20260504004903 29 117 0.0 0.0 0.00 0.00 0.00 23 1003.0
20260504004403 29 117 0.0 0.0 0.00 0.00 0.00 22 1003.2
20260504003902 29 117 0.0 0.0 0.00 0.00 0.00 23 1003.3
20260504003403 29 117 0.0 0.0 0.00 0.00 0.00 23 1003.4
20260504002403 29 117 0.0 3.2 0.00 0.00 0.00 24 1003.5
20260504001903 29 113 0.0 4.8 0.00 0.00 0.00 24 1003.5
20260504001402 29 61 0.0 1.6 0.00 0.00 0.00 22 1003.5
20260504000903 29 110 0.0 0.0 0.00 0.00 0.00 24 1003.5
20260503235902 29 110 0.0 1.6 0.00 0.00 0.00 23 1003.6
20260503235403 29 128 0.0 1.6 0.00 0.00 0.00 23 1003.6
20260503234902 29 128 0.0 1.6 0.00 0.00 0.00 23 1003.7
20260503234403 29 128 0.0 0.0 0.00 0.00 0.00 23 1003.8
20260503233903 29 128 0.0 1.6 0.00 0.00 0.00 22 1003.8
20260503233403 29 67 0.0 1.6 0.00 0.00 0.00 22 1003.7
20260503232903 30 104 0.0 1.6 0.00 0.00 0.00 22 1003.7
20260503232402 30 2 0.0 1.6 0.00 0.00 0.00 22 1003.8
20260503231902 30 107 0.0 4.8 0.00 0.00 0.00 22 1003.8
20260503231403 30 102 0.0 1.6 0.00 0.00 0.00 23 1003.8
20260503230903 29 122 0.0 0.0 0.00 0.00 0.00 23 1003.8
20260503225403 29 120 0.0 0.0 0.00 0.00 0.00 23 1004.1
20260503224902 29 119 0.0 1.6 0.00 0.00 0.00 23 1004.2
20260503223903 29 98 0.0 3.2 0.00 0.00 0.00 22 1004.3
20260503221403 28 133 0.0 0.0 0.00 0.00 0.00 24 1004.7
20260503220903 28 133 0.0 1.6 0.00 0.00 0.00 22 1004.8
20260503220403 28 157 1.6 4.8 0.00 0.00 0.00 23 1004.7
20260503215903 28 130 0.0 1.6 0.00 0.00 0.00 23 1004.8
20260503215403 28 130 0.0 3.2 0.00 0.00 0.00 23 1004.8
20260503214902 28 88 0.0 1.6 0.00 0.00 0.00 23 1005.1
20260503214403 28 136 0.0 3.2 0.00 0.00 0.00 24 1005.2
20260503213902 28 128 1.6 4.8 0.00 0.00 0.00 24 1005.3
20260503213402 28 144 0.0 4.8 0.00 0.00 0.00 24 1005.3
20260503212903 27 123 0.0 3.2 0.00 0.00 0.00 25 1005.4
20260503212402 27 121 1.6 9.7 0.00 0.00 0.00 23 1005.5
20260503211903 27 310 0.0 9.7 0.00 0.00 0.00 24 1005.5
20260503211403 27 93 3.2 8.0 0.00 0.00 0.00 23 1005.6
20260503210903 27 151 1.6 3.2 0.00 0.00 0.00 23 1005.7
20260503210402 27 150 0.0 8.0 0.00 0.00 0.00 23 1005.7
20260503205902 27 120 0.0 3.2 0.00 0.00 0.00 24 1005.9
20260503205403 27 140 0.0 3.2 0.00 0.00 0.00 24 1006.0
20260503204903 26 65 0.0 1.6 0.00 0.00 0.00 26 1006.0
20260503204402 26 134 0.0 3.2 0.00 0.00 0.00 24 1006.1
20260503203903 26 70 0.0 3.2 0.00 0.00 0.00 25 1006.2
20260503203402 26 339 0.0 0.0 0.00 0.00 0.00 29 1006.4
20260503202903 26 339 1.6 4.8 0.00 0.00 0.00 31 1006.5
20260503202402 25 314 3.2 9.7 0.00 0.00 0.00 30 1006.5
20260503201903 25 330 1.6 4.8 0.00 0.00 0.00 32 1006.5
20260503201403 25 321 3.2 8.0 0.00 0.00 0.00 31 1006.6
20260503200903 25 350 3.2 8.0 0.00 0.00 0.00 30 1006.7
20260503200403 25 347 0.0 0.0 0.00 0.00 0.00 29 1006.7
20260503195903 25 347 0.0 3.2 0.00 0.00 0.00 32 1006.8
20260503195403 25 342 0.0 8.0 0.00 0.00 0.00 28 1006.9
20260503194903 24 326 1.6 8.0 0.00 0.00 0.00 30 1007.1
20260503194403 24 51 0.0 1.6 0.00 0.00 0.00 28 1007.2
20260503193903 24 53 0.0 1.6 0.00 0.00 0.00 28 1007.3
20260503193403 23 1 1.6 3.2 0.00 0.00 0.00 29 1007.4
20260503192903 23 0 3.2 4.8 0.00 0.00 0.00 31 1007.5
20260503191903 23 17 0.0 0.0 0.00 0.00 0.00 30 1007.8
20260503191403 23 0 1.6 4.8 0.00 0.00 0.00 32 1007.9
20260503190903 23 346 1.6 4.8 0.00 0.00 0.00 33 1007.9
20260503190403 22 0 1.6 4.8 0.00 0.00 0.00 32 1007.9
20260503185903 22 349 0.0 1.6 0.00 0.00 0.00 33 1008.1
20260503185403 22 354 0.0 4.8 0.00 0.00 0.00 35 1008.2
20260503184903 22 314 1.6 3.2 0.00 0.00 0.00 34 1008.3
20260503183903 21 288 1.6 3.2 0.00 0.00 0.00 38 1008.5
20260503183403 21 337 3.2 8.0 0.00 0.00 0.00 36 1008.5
20260503182402 21 314 1.6 8.0 0.00 0.00 0.00 37 1008.7
20260503181903 20 313 1.6 8.0 0.00 0.00 0.00 37 1008.9
20260503180403 20 329 1.6 4.8 0.00 0.00 0.00 40 1009.0
20260503175903 20 302 0.0 0.0 0.00 0.00 0.00 40 1009.0
20260503175403 20 301 0.0 1.6 0.00 0.00 0.00 41 1009.1
20260503174903 20 183 0.0 0.0 0.00 0.00 0.00 42 1009.2
20260503174403 19 172 1.6 3.2 0.00 0.00 0.00 41 1009.2
20260503173903 19 356 0.0 4.8 0.00 0.00 0.00 42 1009.3
20260503173403 19 333 0.0 4.8 0.00 0.00 0.00 42 1009.4
20260503172903 19 332 0.0 0.0 0.00 0.00 0.00 43 1009.5
20260503172404 19 332 0.0 3.2 0.00 0.00 0.00 42 1009.6
20260503171902 19 311 0.0 4.8 0.00 0.00 0.00 42 1009.6
20260503171403 19 306 0.0 3.2 0.00 0.00 0.00 42 1009.7
20260503170903 19 61 0.0 4.8 0.00 0.00 0.00 42 1009.7
20260503170403 19 142 0.0 4.8 0.00 0.00 0.00 41 1009.7
20260503150903 12 138 0.0 0.0 0.00 0.00 0.00 60 1011.1
20260503150403 12 138 0.0 1.6 0.00 0.00 0.00 62 1010.8
20260503131402 8 116 1.6 3.2 0.00 0.00 0.00 69 1010.5
20260503130903 8 116 0.0 0.0 0.00 0.00 0.00 68 1010.4
20260503130403 8 116 0.0 0.0 0.00 0.00 0.00 68 1010.3
20260503110403 11 116 0.0 0.0 0.00 0.00 0.00 62 1010.2